Погода в Прохладном

Россия / Кабардино-Балкарская Республика     43°45′32″N   44°00′36″E
темп.,
°C
ветер,
м/с
пор.,
м/с
влажн.,
%
обл.,
%
осадки,
мм/ч
давл.,
гПа
погр.,
м
5 марта, пт
пт500:00+1в11670 0.0 102322
03:00+1ююв12730 0.0 102222
06:000ююв12700 0.0 102121
09:00+4в11530 0.0 1019260
12:00+8юв34390 0.0 1018668
15:00+11юв22300 0.0 1017806
18:00+8вюв11420 0.0 101922
21:00+5юв22550 0.0 102122
6 марта, сб
сб600:00+4ю23640 0.0 102028
03:00+3ю22620 0.0 102122
06:00+2ю34570 0.0 102051
09:00+8ю23425 0.0 1018140
12:00+15юв33260 0.0 1016365
15:00+18вюв34210 0.0 10141023
18:00+13всв333637 0.0 101427
21:00+11зсз124468 0.0 101531
7 марта, вс
вс700:00+9ссз41157100 0.0 1016413
03:00+5сз101572100 0.0 10191156
06:00+2ссз71167100 0.1 10231290
09:00+1ссз5846100 0.1 10251332
12:00+3ссз5629100 0.0 10241457
15:00+5ссз342760 0.0 10231633
18:00+3с23370 0.0 102473
21:00+1с22540 0.0 102561
8 марта, пн
пн800:00−1с23610 0.0 102556
03:00−1ссз11620 0.0 102421
06:00−2ююз12630 0.0 102422
09:00+1ююв22480 0.0 1022489
12:00+4в23380 0.0 10191238
15:00+6всв22360 0.0 10171474
18:00+4св23460 0.0 101844
21:00+2в23520 0.0 102029
9 марта, вт
вт900:00+1в11552 0.0 102022
03:000всв116021 0.0 101921
06:00−1юв016438 0.0 101921
09:00+3юв125019 0.0 1017331
12:00+7вюв34400 0.0 10151204
15:00+9в33350 0.0 10141318
18:00+6св33468 0.0 101550
21:00+5с115254 0.0 101722